Tracking 27107 objects as of 20-Mar-2023
HD Live streaming from Space Station
objects crossing your sky now

DIRECTV 6 (TEMPO 2)

Track DIRECTV 6 (TEMPO 2) now!
DIRECTV 6 (TEMPO 2) is classified as:


NORAD ID: 24748
Int'l Code: 1997-011A
Perigee: 36,031.9 km
Apogee: 36,257.1 km
Inclination: 11.6 °
Period: 1,454.1 minutes
Semi major axis: 42515 km
RCS: 12.5892 m2 (large)
Launch date: March 8, 1997
Source: United States (US)
Launch site: AIR FORCE EASTERN TEST RANGE (AFETR)

Direct-to-home TV; 32 Ku-band transponders
Your satellite tracking list
Your tracking list is empty




NASA's NSSDC Master Catalog

Two Line Element Set (TLE):
1 24748U 97011A   23078.66812150 -.00000193  00000-0  00000-0 0  9996
2 24748  11.6463  30.7472 0026488 298.5375 266.9557  0.99033578 94746
Source of the keplerian elements: AFSPC